sat.trackr.live / text

‹ back to catalog

STARLINK-34115

NORAD 63972 · 2025-099W

PAYLOAD ACTIVE UNKNOWN

§ Identity

Operator
Country
US
Launch date
2025-05-13
Launch site
AFETR
Launch vehicle
Mass (kg)
RCS (m²)

Purposes: comms

External: N2YO · Heavens-Above · Gunter

§ Orbital elements

Epoch: 2026-09-20T09:08:13.928064Z

Period
94.27 min
Inclination
42.9984°
Eccentricity
0.0001457
Mean motion
15.27584824 rev/d
Perigee alt
482.0 km
Apogee alt
484.0 km
Semi-major
6,861.2 km
B*
4.1122e-4
RAAN
153.0750°
Arg perigee
286.9051°
Mean anomaly
73.1640°
Rev number
7,715

§ Raw data

STARLINK-341151 63972U 25099W   26263.38071676  .00011073  00000+0  41122-3 0  99932 63972  42.9984 153.0750 0001457 286.9051  73.1640 15.27584824 77151

JSON: /api/v1/satellites/63972 · /tle

For live sub-satellite position, see the globe view (requires WebGL).

§ Visibility from observer

Set your observer location to see the next 7 days of passes ≥ 10°. The values pass through the URL so the page stays shareable.

No JS? Fill the form by hand. The geolocation button needs JavaScript.